Weather in Achtkarspelen

Netherlands     53°12′52″N   6°08′32″E
temp.,
°C
wind,
m/s
gust,
m/s
humid.,
%
clouds,
%
prec.,
mm/h
press.,
hPa
HPBL,
m
26 june, sun
sun2623:00+16ene3797100 1.4 1012154
02:00+17sse229596 4.3 101240
05:00+16sw3895100 0.3 1012253
08:00+17sw4790100 0.3 1013455
11:00+20sw676699 0.0 10151118
14:00+20sw565826 0.0 10161225
17:00+21ssw4456100 0.0 10161273
20:00+19nne237299 0.0 1016118
27 june, mon
mon2723:00+15ne3592100 0.0 101691
02:00+15ese3590100 0.0 1016107
05:00+14ese2396100 0.4 101598
08:00+15sse2396100 0.4 1016148
11:00+18ssw1183100 0.3 1015409
14:00+20w2367100 1.3 1016802
17:00+19w6664100 0.3 1017907
20:00+18w467169 0.3 1018601
28 june, tue
tue2823:00+12wsw239075 0.0 102029
02:00+11sw33880 0.0 102029
05:00+10ssw34864 0.0 102158
08:00+15ssw46760 0.0 1021265
11:00+19ssw57560 0.0 10211233
14:00+21sw57500 0.0 10201829
17:00+22wsw454941 0.0 10191563
20:00+18nne457289 0.0 1019284
29 june, wed
wed2923:00+14ene478757 0.0 1019101
02:00+14ese4108319 0.0 1017156
05:00+14ese47795 0.0 101798
08:00+18se48745 0.0 1016244
11:00+24sse455692 0.0 1016681
14:00+26s4647100 0.0 10152243
17:00+25nw445185 0.0 1014982
20:00+21nnw46725 0.0 1014180
30 june, thu
thu3023:00+17n349173 0.0 101555
02:00+17e339086 0.0 101441
05:00+16ese46790 0.0 101393
08:00+20ese37670 0.0 1013187
11:00+22ese4663100 0.0 1013350
14:00+23ese477493 0.2 1012365
17:00+27ese58494 0.0 1010879
20:00+25e712590 0.0 1009488